Regional Weather Roundup
Issued by NWS

Home | Current Version | Previous Version | Graphics & Text | Print | Product List | Glossary On
Versions: 1 2 3 4 5 6 7 8 9 10 11 12 13 14 15 16 17 18 19 20 21 22 23 24 25 26 27 28 29 30 31 32 33 34 35 36 37 38 39 40 41 42 43 44 45 46 47 48 49 50
000
ASUS43 KDMX 271607
RWRIA

WEATHER ROUNDUP FOR IOWA
NATIONAL WEATHER SERVICE DES MOINES IA
1100 AM CDT SUN JUL 27 2014

NOTE: "FAIR" INDICATES FEW OR NO CLOUDS BELOW 12,000 FEET WITH NO
SIGNIFICANT WEATHER AND/OR OBSTRUCTIONS TO VISIBILITY.

* - THESE STATIONS ARE NOT NWS STATIONS...THUS NOT UNDER NWS
QUALITY CONTROL.  THEY ALSO DO NOT REPORT WEATHER SUCH
AS PRECIPITATION OR FOG.

IAZ001>003-012>014-020>022-031>034-043>046-271700-
   NORTHWEST IOWA

CITY           SKY/WX    TMP DP  RH WIND       PRES   REMARKS
CARROLL *      SUNNY     73  57  56 NW16G24   30.03R
CHEROKEE *     MOSUNNY   70  57  64 NW12G26   30.06R
DENISON *      SUNNY     72  59  64 NW20      30.04R
LE MARS *      MOSUNNY   72  59  64 NW18G25   30.08R
ORANGE CITY *  PTSUNNY   72  57  60 N18       30.07R
SHELDON *      CLOUDY    68  57  68 NW15G24   30.05R
SIOUX CITY     MOSUNNY   75  59  57 NW14G21   30.07R
SPENCER        CLOUDY    69  56  62 NW22G28   30.03R
STORM LAKE *   MOSUNNY   68  59  73 NW20G26   30.06R
$$

IAZ055>058-069>071-079>083-090>094-271700-
   SOUTHWEST IOWA

CITY           SKY/WX    TMP DP  RH WIND       PRES   REMARKS
ATLANTIC *     SUNNY     75  57  53 NW18G25   30.05R
AUDUBON *      SUNNY     75  63  64 NW13G20   30.06R
CLARINDA *     SUNNY     79  59  50 NW15G21   30.07R HX  80
COUNCIL BLFS * SUNNY     77  59  53 NW16G23   30.08R
CRESTON *      SUNNY     77  57  50 NW20G30   30.03S
HARLAN  *      SUNNY     73  61  64 NW15G23   30.10R
LAMONI         SUNNY     79  56  45 NW21G29   30.01S HX  80
RED OAK *      SUNNY     79  59  50 NW16      30.07R HX  80
SHENANDOAH *   SUNNY     79  61  53 N13G18    30.08S HX  80
$$

IAZ047>049-059>061-072>074-084-271700-
   CENTRAL IOWA

CITY           SKY/WX    TMP DP  RH WIND       PRES   REMARKS
AMES           SUNNY     73  58  59 NW21G29   29.97R
ANKENY *       SUNNY     75  57  53 NW17G26   29.97R
CHARITON *     SUNNY     77  57  50 NW20G30   29.98S
DES MOINES     MOSUNNY   78  54  43 NW25G35   29.97R
GRINNELL*      SUNNY     73  59  60 NW16G22   29.94S
KNOXVILLE *    SUNNY     77  57  50 NW22      29.95R
MARSHALLTOWN   PTSUNNY   72  59  63 NW21G31   29.94R
PELLA *        SUNNY     77  59  53 NW16G24   29.96R
PERRY *          N/A     73  59  60 NW13G20   30.01R
$$

IAZ004>006-015-016-023>025-035-036-271700-
   NORTH CENTRAL IOWA

CITY           SKY/WX    TMP DP  RH WIND       PRES   REMARKS
ALGONA *       PTSUNNY   68  57  68 NW18G25   29.99R
CLARION *      PTSUNNY   70  57  64 NW23G31   29.97R
ESTHERVILLE    PTSUNNY   68  57  68 NW22G30   30.01R
FORT DODGE *   CLOUDY    70  57  64 NW12G22   30.01R
MASON CITY     PTSUNNY   71  57  61 NW25G33   29.95R
FOREST CITY *  CLOUDY    70  57  64 NE17G23   29.95R
IOWA FALLS *   PTSUNNY   70  57  64 NW20G25   29.97R
$$

IAZ007>011-017>019-026>030-037>042-050>054-066-271700-
   NORTHEAST IOWA

CITY           SKY/WX    TMP DP  RH WIND       PRES   REMARKS
CEDAR RAPIDS   SUNNY     75  60  59 NW17G24   29.88S
CHARLES CITY * PTSUNNY   70  57  64 NW18G33   29.91R
CLINTON *      SUNNY     77  59  53 W15G29    29.86R
DECORAH *      CLOUDY    70  57  64 NW15G22   29.86R
DUBUQUE        SUNNY     73  59  61 NW20G25   29.85R
MONTICELLO *   SUNNY     73  59  60 W18G26    29.85R
OELWEIN *      PTSUNNY   70  59  68 NW21G29   29.90R
WATERLOO       PTSUNNY   72  57  59 NW18G25   29.89R
$$

IAZ064-065-067-068-078-271700-
   EAST CENTRAL IOWA

CITY           SKY/WX    TMP DP  RH WIND       PRES   REMARKS
DAVENPORT      SUNNY     77  60  55 W20G29    29.85S
IOWA CITY      SUNNY     77  59  53 W16G31    29.89S
MT. PLEASANT * SUNNY     79  57  47 W14G20    29.90S HX  80
MUSCATINE *    SUNNY     81  61  50 W18       29.87S HX  81
QUAD CITIES    SUNNY     80  58  46 NW18G24   29.84S HX  80
$$

IAZ062-063-075>077-085>089-095>099-271700-
   SOUTHEAST IOWA

CITY           SKY/WX    TMP DP  RH WIND       PRES   REMARKS
BURLINGTON     SUNNY     79  61  53 NW13G23   29.89S HX  80
FAIRFIELD *    SUNNY     77  61  57 NW14G22   29.92S
FORT MADISON * SUNNY     81  63  54 NW14G22   29.91S HX  82
KEOKUK *       SUNNY     79  61  53 NW17G24   29.91R HX  80
OSKALOOSA *      N/A     77  63  61 NW17G28   29.93S
CENTERVILLE *  SUNNY     79  61  53 W13       29.98F HX  80
OTTUMWA        SUNNY     78  59  51 W20G28    29.93S
WASHINGTON *   SUNNY     79  61  53 NW16G26   29.89F HX  80
$$

ABBREVIATIONS USED IN REMARKS
   TC - TEMPERATURES IN CELSIUS
  WCI - WIND CHILL INDEX
   HX - HEAT INDEX
  VSB - VISIBILITY
$$



USA.gov is the U.S. government's official web portal to all federal, state and local government web resources and services.